Grand Forks AFB, ND

1:28 PM CST on February 23, 2018 (GMT -0600)
Grand Forks Air Force Base

Weather History for KRDR - February, 2014

Change the Weather History Date:

Sunday, February 23, 2014

  Actual Average Record
Temperature  
Mean Temperature 4 °F -  
Max Temperature 9 °F 23 °F 44 °F (1998)
Min Temperature -2 °F 7 °F -16 °F (2003)
Degree Days  
Heating Degree Days 61    
Moisture  
Dew Point -4 °F    
Average Humidity 67    
Maximum Humidity 73    
Minimum Humidity 63    
Precipitation  
Precipitation 0.00 in - - ()
Sea Level Pressure  
Sea Level Pressure 30.33 in    
Wind  
Wind Speed 14 mph (NW)    
Max Wind Speed 20 mph    
Max Gust Speed 28 mph    
Visibility 10 miles    
Events      
Averages and records for this station are not official NWS values.
T = Trace of Precipitation, MM = Missing Value Source: NWS Daily Summary

Daily Weather History Graph

Daily Weather History Graph

Search for Another Location

Airport or City:

Trip Planner

Search our weather history database for the weather conditions in past years. The results will help you decide how hot, cold, wet, or windy it might be!

Date:

Astronomy

Feb. 23, 2014 Rise Set
Actual Time 7:21 AM CST 6:04 PM CST
Civil Twilight 6:50 AM CST 6:36 PM CST
Nautical Twilight 6:14 AM CST 7:12 PM CST
Astronomical Twilight 5:38 AM CST 7:48 PM CST
Moon 2:34 AM CST 11:54 AM CST
Length of Visible Light 11h 46m
Length of Day
10h 43m
Last Quarter, 38% of the Moon is Illuminated
Feb 23
Last Quarter
Mar 1
New
Mar 8
First Quarter
Mar 16
Full
Mar 23
Last Quarter

Hourly Weather History & Observations

Time (CST) Temp. Windchill Dew Point Humidity Pressure Visibility Wind Dir Wind Speed Gust Speed Precip Events Conditions
12:58 AM 3.9 °F -11.3 °F -4.4 °F 69% 30.23 in 10.0 mi NW 10.4 mph - N/A   Mostly Cloudy
1:58 AM 5.7 °F -11.4 °F -2.7 °F 68% 30.23 in 10.0 mi NW 13.8 mph - N/A   Overcast
2:58 AM 6.4 °F -11.1 °F -2.0 °F 68% 30.23 in 10.0 mi NW 15.0 mph - N/A   Overcast
3:58 AM 7.3 °F -10.6 °F -0.8 °F 69% 30.25 in 10.0 mi NW 16.1 mph - N/A   Overcast
4:58 AM 7.0 °F -9.1 °F -0.6 °F 71% 30.25 in 10.0 mi NW 12.7 mph - N/A   Overcast
5:58 AM 6.8 °F -7.8 °F -0.6 °F 72% 30.28 in 10.0 mi NW 10.4 mph - N/A   Overcast
6:58 AM 4.8 °F -11.1 °F -2.0 °F 73% 30.28 in 10.0 mi NW 11.5 mph - N/A   Scattered Clouds
7:58 AM 3.6 °F -13.4 °F -3.8 °F 71% 30.30 in 10.0 mi NW 12.7 mph - N/A   Clear
8:58 AM 3.4 °F -16.3 °F -4.9 °F 68% 30.31 in 10.0 mi NW 17.3 mph - N/A   Clear
9:58 AM 4.8 °F -13.2 °F -4.5 °F 65% 30.34 in 10.0 mi NW 15.0 mph - N/A   Clear
10:58 AM 5.9 °F -12.4 °F -4.0 °F 64% 30.35 in 10.0 mi NNW 16.1 mph 25.3 mph N/A   Clear
11:58 AM 7.0 °F -12.1 °F -2.7 °F 64% 30.36 in 10.0 mi NW 18.4 mph 24.2 mph N/A   Clear
12:58 PM 8.1 °F -10.7 °F -1.5 °F 65% 30.36 in 10.0 mi NW 18.4 mph 23.0 mph N/A   Clear
1:58 PM 9.0 °F -9.0 °F -0.8 °F 65% 30.36 in 10.0 mi NW 17.3 mph - N/A   Clear
2:58 PM 9.3 °F -8.6 °F -0.6 °F 64% 30.35 in 10.0 mi NW 17.3 mph 27.6 mph N/A   Clear
3:58 PM 9.5 °F -7.2 °F -0.0 °F 65% 30.35 in 10.0 mi NW 15.0 mph 21.9 mph N/A   Clear
4:58 PM 8.1 °F -9.6 °F -1.1 °F 66% 30.37 in 10.0 mi NW 16.1 mph 24.2 mph N/A   Clear
5:58 PM 5.7 °F -10.7 °F -2.7 °F 68% 30.39 in 10.0 mi NW 12.7 mph - N/A   Clear
6:58 PM 3.4 °F -13.6 °F -5.3 °F 67% 30.40 in 10.0 mi NW 12.7 mph - N/A   Clear
7:58 PM 1.4 °F -16.1 °F -6.5 °F 69% 30.40 in 10.0 mi NW 12.7 mph - N/A   Clear
8:58 PM 0.1 °F -18.5 °F -8.5 °F 67% 30.40 in 10.0 mi NW 13.8 mph - N/A   Clear
9:58 PM 0.5 °F -21.1 °F -9.4 °F 63% 30.40 in 10.0 mi NW 19.6 mph 25.3 mph N/A   Clear
10:58 PM -1.3 °F -21.0 °F -10.3 °F 66% 30.40 in 10.0 mi NW 15.0 mph - N/A   Clear
11:58 PM -2.6 °F -22.6 °F -11.6 °F 65% 30.41 in 10.0 mi NW 15.0 mph - N/A   Clear